User: anonymous   Login
Location: Quaker Farms
(41.4276°N, 73.1557°W)
Time: 11:35:02
(UTC+00:00)
Language:

S-56A Canister/Altair - Orbit

View from above orbital plane
View from above orbital plane
View from above satellite
View from above satellite

Ground track
Ground track

The orbit data is extracted from the following two-line orbital elements,

1 00082U 61004B   21163.84326187 -.00000107  00000-0 -38277-4 0  9994
2 00082  38.8573 303.9111 1175738  22.8833 342.0127 12.26034497852048
Epoch (UTC): 12 June 2021 20:14:17
Eccentricity: 0.1175738
inclination: 38.8573°
perigee height: 632 km
apogee height: 2500 km
right ascension of ascending node: 303.9111°
argument of perigee: 22.8833°
revolutions per day: 12.26034497
mean anomaly at epoch: 342.0127°
orbit number at epoch: 85204

The dashed part of the orbit path shows where the satellite is in the earth's shadow,  

DLR